CST,Max TemperatureF,Mean TemperatureF,Min TemperatureF,Max Dew PointF,MeanDew PointF,Min DewpointF,Max Humidity, Mean Humidity, Min Humidity, Max Sea Level PressureIn, Mean Sea Level PressureIn, Min Sea Level PressureIn, Max VisibilityMiles, Mean VisibilityMiles, Min VisibilityMiles, Max Wind SpeedMPH, Mean Wind SpeedMPH, Max Gust SpeedMPH,PrecipitationIn, CloudCover, Events, WindDirDegrees
2012-11-1,51,40,30,30,28,21,87,62,41,30.00,29.93,29.89,10,9,1,17,6,24,0.00,0,,329
2012-11-2,44,34,23,28,25,19,93,70,49,30.13,30.07,30.00,10,10,10,10,6,,0.03,0,,54
2012-11-3,48,40,33,32,31,28,87,68,50,30.22,30.18,30.11,10,10,10,7,4,,0.00,1,,95
2012-11-4,50,42,35,37,35,30,100,79,58,30.23,30.19,30.13,10,9,7,9,4,,0.02,0,Rain,137
2012-11-5,46,38,30,37,31,27,87,73,50,30.18,30.13,30.06,10,9,5,9,6,,0.00,0,,122
2012-11-6,44,37,30,41,36,27,100,90,71,30.05,29.90,29.81,10,6,1,18,9,24,0.18,3,Rain,244
2012-11-7,42,38,35,37,34,30,100,79,61,30.13,30.08,29.93,10,10,7,12,6,,0.00,2,,334
2012-11-8,53,43,33,37,35,32,93,78,51,30.12,30.04,29.97,10,10,7,21,9,26,0.00,0,,156
2012-11-9,55,45,35,45,39,34,93,77,58,29.99,29.94,29.87,10,8,2,17,9,21,0.00,0,,105
2012-11-10,75,62,50,55,51,45,94,70,47,29.87,29.72,29.63,10,9,5,24,16,32,0.00,0,Rain,150
2012-11-11,62,44,26,55,38,18,100,82,55,30.02,29.79,29.66,10,9,2,24,18,30,0.95,5,Rain-Snow,264
2012-11-12,32,26,21,21,19,16,86,74,64,30.34,30.14,30.03,10,10,10,22,14,29,0.00,4,Snow,271
2012-11-13,42,30,17,28,22,14,93,75,46,30.44,30.38,30.34,10,10,10,15,7,,0.00,0,,180
2012-11-14,53,43,33,34,31,28,87,70,41,30.36,30.31,30.26,10,10,10,15,10,20,0.00,0,,168
2012-11-15,53,42,32,36,32,28,100,72,47,30.38,30.27,30.23,10,10,7,14,10,17,0.00,0,,220
2012-11-16,51,40,30,34,31,25,100,76,47,30.45,30.41,30.38,10,10,7,9,5,,0.00,0,,64
2012-11-17,57,44,32,36,33,30,100,75,41,30.41,30.37,30.32,10,7,2,18,10,25,0.00,0,,147
2012-11-18,55,44,33,34,33,32,93,66,41,30.32,30.24,30.19,10,9,4,17,12,23,0.00,0,,147
2012-11-19,55,48,39,46,41,34,100,81,62,30.19,30.11,30.05,10,8,0,16,8,18,0.14,2,Fog-Rain,151
2012-11-20,55,44,33,46,40,34,100,88,63,30.17,30.13,30.05,10,4,0,8,4,,0.00,4,Fog-Snow,273
2012-11-21,64,48,32,45,40,32,100,77,45,30.16,30.05,29.91,10,7,0,20,10,23,0.01,2,Fog-Snow,170
2012-11-22,62,48,35,46,38,27,81,66,45,29.99,29.83,29.69,10,10,10,34,19,43,0.00,0,,226
2012-11-23,33,28,23,27,17,12,80,66,51,30.31,30.20,29.99,10,10,10,36,24,45,0.00,0,,309
2012-11-24,30,22,15,21,18,12,86,74,59,30.29,30.12,29.84,10,10,10,15,8,16,0.00,1,,215
2012-11-25,37,30,23,25,23,19,86,73,56,30.12,29.94,29.82,10,10,10,17,8,21,0.00,0,,305
2012-11-26,28,20,12,23,13,9,86,65,47,30.40,30.30,30.13,10,10,10,21,9,28,0.00,0,,321
2012-11-27,32,21,10,18,12,5,85,63,44,30.38,30.28,30.19,10,10,10,15,6,21,0.00,0,,212
2012-11-28,41,29,17,27,20,12,93,70,49,30.36,30.27,30.16,10,10,5,9,6,,0.00,0,,220
2012-11-29,50,39,28,32,30,25,93,75,50,30.16,30.05,29.99,10,9,7,12,8,,0.00,0,,145
2012-11-30,44,38,32,36,33,30,100,88,66,30.12,30.07,29.99,10,4,2,15,8,21,0.00,0,,69